Location: Clayton (historical)
(34.0300°N, 118.0259°W)
Time: 00:01:02
(UTC+00:00)

Envisat - Pass Details

Date: 25 January 2021
Orbit: 764 x 766 km, 98.1° (Epoch: 06 March)

Event Time Altitude Azimuth Distance (km) Brightness Sun altitude
Rises 12:58:09 0° 22° (NNE) 3,236 6.4 -23.9°
Reaches altitude 10° 13:00:38 10° 31° (NNE) 2,305 5.7 -23.4°
Maximum altitude 13:05:19 37° 98° (E) 1,171 4.5 -22.4°
Drops below altitude 10° 13:09:59 10° 165° (SSE) 2,291 5.7 -21.4°
Sets 13:12:26 0° 174° (S) 3,213 6.4 -20.9°
